Location: ?????????
(54.7630°N, 39.4991°E)
Time: 19:48:04
(UTC+00:00)

SeaSat 1 - Pass Details

Date: 14 April 2026
Orbit: 736 x 740 km, 108.0° (Epoch: 19 May)

Event Time Altitude Azimuth Distance (km) Brightness Sun altitude
Exits shadow 18:03:28 14° 96° (E) 1,973 4.1 -13.4°
Maximum altitude 18:06:58 32° 39° (NE) 1,264 3.6 -13.8°
Drops below altitude 10° 18:11:16 10° 338° (NNW) 2,262 6.0 -14.3°
Sets 18:13:44 0° 329° (NNW) 3,189 7.2 -14.5°
